Lapse_Rate
3.8 4.1 3.4 3.1 3.5 4.0 3.8 4.3 2.7 4.3 3.3 5.5 5.1 4.7 4.8 5.2 5.0 4.9 5.0 5.0 4.8 4.6 4.7 4.6 4.4 4.5 4.5 4.7 4.7 4.6 4.8 5.0 5.2 5.4 5.3 5.4 5.6 5.8 5.7 5.5 5.6 5.8 5.6 5.6
2.9 3.8 3.8 3.0 4.0 4.7 4.0 3.9 3.5 4.8 4.5 5.6 5.0 4.6 4.6 5.2 5.1 4.9 4.9 4.9 4.6 4.5 4.7 4.6 4.5 4.4 4.5 4.6 4.7 4.6 4.8 5.1 5.1 5.3 5.3 5.4 5.5 5.7 5.5 5.5 5.6 5.7 5.6 5.6
2.8 3.2 3.0 2.9 5.0 5.7 6.2 5.2 5.2 5.1 5.6 5.1 5.1 4.7 5.2 5.5 5.1 5.1 5.0 4.8 4.7 4.7 4.7 4.5 4.5 4.4 4.5 4.6 4.6 4.7 4.8 5.1 5.1 5.3 5.4 5.4 5.6 5.8 5.5 5.4 5.4 5.4 5.6 5.5
3.1 3.0 1.9 4.5 5.1 5.5 5.0 4.9 5.0 5.2 5.4 5.1 5.1 5.2 5.4 5.7 5.0 5.0 5.0 4.9 4.7 4.6 4.5 4.5 4.5 4.4 4.5 4.5 4.6 4.7 4.8 5.1 5.2 5.3 5.5 5.6 5.7 5.7 5.6 5.4 5.4 5.4 5.3 5.3
3.0 3.1 3.6 4.1 5.1 5.0 4.4 4.0 4.9 5.1 5.4 5.3 5.1 4.7 5.2 5.1 5.0 4.8 4.8 4.7 4.5 4.3 4.3 4.3 4.3 4.4 4.5 4.6 4.6 4.8 4.8 5.2 5.5 5.6 5.6 5.7 5.8 5.6 5.4 5.4 5.4 5.4 5.0 5.1
3.1 2.9 2.2 4.7 5.2 5.0 4.8 4.1 5.0 4.9 4.8 4.7 4.7 4.5 4.8 4.5 4.4 4.5 4.5 4.3 4.1 4.2 4.3 4.4 4.5 4.4 4.5 4.7 4.9 5.0 5.2 5.4 5.7 5.8 5.7 5.7 5.5 5.5 5.2 5.1 5.3 5.2 5.0 4.7
3.8 3.1 4.0 5.1 5.0 5.0 4.4 4.8 4.4 4.3 4.8 4.8 4.6 4.6 4.4 4.4 4.6 4.3 4.4 4.3 4.2 4.3 4.4 4.7 4.9 4.9 5.1 5.1 5.2 5.2 5.4 5.6 5.7 5.7 5.5 5.3 5.3 5.1 5.0 4.8 5.0 5.0 4.7 4.6
3.7 3.1 3.5 5.1 5.5 5.2 5.2 5.0 5.0 5.0 5.1 5.1 5.0 4.9 4.8 4.8 4.7 4.7 4.7 4.6 4.8 4.9 5.0 5.1 5.2 5.2 5.1 5.2 5.3 5.4 5.5 5.7 5.6 5.5 5.2 5.2 5.0 4.9 4.7 4.6 4.6 4.7 4.4 4.2
5.3 5.5 5.8 6.0 6.0 5.9 5.0 5.2 5.1 5.3 5.5 5.4 5.1 5.0 5.1 5.0 5.1 4.7 4.7 5.0 5.3 5.5 5.5 5.5 5.4 5.3 5.3 5.6 5.6 5.5 5.7 6.0 6.1 5.8 5.5 5.3 4.9 4.6 4.5 4.6 4.3 4.4 4.2 3.9
5.6 5.1 5.6 5.9 6.0 5.9 5.5 5.6 5.7 5.7 5.7 5.5 5.0 5.1 5.0 4.8 4.9 5.2 5.4 5.5 5.5 5.6 5.6 5.6 5.7 5.8 5.8 6.1 6.2 6.4 6.8 6.9 6.8 6.6 6.1 5.5 4.9 4.5 4.4 4.6 4.1 3.9 3.7 3.6
5.4 5.9 5.8 5.5 5.6 5.6 5.8 5.8 5.7 5.8 5.5 5.3 5.2 5.4 5.5 5.3 5.5 5.6 5.8 5.9 5.8 5.8 5.8 6.0 6.2 6.5 6.7 6.9 6.8 7.0 7.1 6.9 7.0 6.9 6.6 5.8 5.0 4.7 4.6 4.5 4.0 3.6 3.4 3.4
5.8 5.8 5.6 5.8 5.7 5.7 5.6 5.6 5.4 5.4 5.3 5.5 5.8 5.7 5.7 5.8 5.9 6.0 6.1 6.1 6.3 6.4 6.5 6.8 7.1 7.4 7.4 7.2 7.3 7.4 7.2 7.1 6.9 6.7 6.3 5.6 5.0 5.1 4.8 4.0 3.7 3.2 3.1 3.0
5.6 5.5 5.6 5.5 5.5 5.6 5.7 5.8 5.8 5.9 6.1 6.2 6.2 6.1 6.0 6.1 6.4 6.5 6.5 6.9 7.1 7.2 7.5 7.6 7.7 7.9 7.6 7.4 7.3 7.2 6.9 6.8 6.7 6.2 5.9 5.3 5.0 4.6 4.3 4.5 3.4 3.4 3.1 3.0
5.8 6.3 6.3 6.3 6.3 6.2 6.1 6.1 6.3 6.3 6.3 6.4 6.5 6.7 6.8 6.8 7.0 7.2 7.4 7.6 7.9 7.7 7.8 7.8 8.0 7.8 7.6 7.4 7.4 7.1 6.8 6.5 6.1 5.8 5.4 4.9 4.6 4.1 3.7 3.5 4.0 4.0 2.9 2.5
6.7 6.6 6.7 6.6 6.5 6.5 6.3 6.4 6.8 7.1 7.1 7.0 7.1 7.3 7.4 7.4 7.4 7.6 8.0 7.9 7.9 7.8 7.8 7.7 7.8 7.9 7.6 7.4 7.3 7.1 6.7 6.2 5.7 5.3 5.0 4.5 3.8 3.5 3.3 3.1 3.1 3.2 2.9 2.6
7.0 7.0 6.8 6.6 6.5 6.7 6.9 7.1 7.0 7.2 7.2 7.4 7.9 7.9 7.7 7.6 7.9 8.2 8.1 8.0 8.0 7.9 7.7 7.6 7.7 7.5 7.3 7.2 7.1 6.7 6.2 5.7 5.2 4.7 4.5 4.1 3.5 3.2 2.9 2.6 2.6 2.9 3.4 3.3
7.0 7.0 6.8 6.8 7.1 7.2 7.2 7.2 7.3 7.5 7.9 8.2 8.0 7.8 7.8 7.9 8.1 8.1 8.0 7.9 7.8 7.4 7.2 7.2 7.1 7.1 7.0 6.6 6.4 6.0 5.6 5.3 4.7 4.4 3.9 3.6 3.2 2.8 2.5 2.5 2.5 2.8 3.7 4.2
6.9 7.0 7.3 7.5 7.5 7.4 7.5 7.8 8.1 8.2 8.1 7.9 8.0 8.0 8.0 7.9 7.9 7.8 7.8 7.7 7.5 7.2 7.0 6.8 6.6 6.5 6.2 6.0 5.7 5.4 5.1 4.8 4.6 4.2 3.9 3.4 2.9 2.6 2.5 2.5 2.8 3.6 4.2 4.5
7.3 7.7 7.9 7.9 7.9 8.1 8.1 8.2 8.3 8.2 8.0 8.1 8.1 8.2 8.0 7.8 7.7 7.6 7.4 7.2 7.0 6.8 6.5 6.3 6.1 5.7 5.6 5.4 5.1 4.9 4.7 4.5 4.2 3.8 3.4 3.0 2.7 2.6 2.8 3.2 3.8 4.0 4.3 4.9
8.0 8.0 7.9 8.0 8.3 8.3 8.3 8.2 8.1 8.2 8.2 8.2 8.2 8.1 7.9 7.7 7.5 7.3 7.0 6.8 6.5 6.3 6.0 5.7 5.4 5.2 5.1 5.0 4.9 4.7 4.5 4.2 3.9 3.6 3.2 3.0 3.0 3.3 3.9 3.9 3.8 3.9 4.3 4.8
8.2 8.0 8.0 8.1 8.2 8.1 7.9 7.9 8.1 8.2 8.4 8.2 8.1 7.9 7.6 7.4 7.1 6.9 6.8 6.4 6.2 5.8 5.4 5.0 4.8 4.8 4.7 4.8 4.8 4.5 4.2 4.0 3.7 3.4 3.2 3.3 3.7 4.1 4.0 3.8 3.7 3.9 4.4 4.9
8.1 8.0 8.0 8.0 8.0 7.9 7.9 8.0 8.2 8.3 8.3 8.2 8.0 7.6 7.3 7.1 6.8 6.7 6.4 6.0 5.8 5.4 5.0 4.8 4.7 4.6 4.7 4.6 4.5 4.3 4.0 3.8 3.5 3.3 3.5 3.8 4.1 4.0 3.9 3.8 4.0 4.2 4.6 4.8
8.1 8.1 8.0 7.9 7.8 7.9 8.0 8.1 8.1 8.2 8.2 8.0 7.7 7.2 7.0 6.7 6.5 6.1 6.1 5.6 5.5 5.3 5.0 4.9 4.8 4.7 4.6 4.7 4.4 4.1 3.9 3.6 3.5 3.6 3.8 4.0 3.9 3.8 3.8 3.9 4.0 4.4 4.7 4.9
8.2 8.0 7.9 7.9 7.8 7.9 8.1 8.2 8.2 8.2 8.0 7.7 7.3 7.0 6.8 6.5 6.7 6.0 5.7 5.4 5.3 5.3 5.1 4.9 4.8 4.7 4.6 4.6 4.2 4.0 3.8 3.7 3.7 3.7 3.9 3.9 3.7 3.8 4.0 4.0 4.1 4.3 4.6 4.9
7.8 7.8 7.8 7.8 7.8 8.0 8.1 7.9 7.8 7.8 7.7 7.6 7.2 6.9 6.5 6.2 5.8 5.9 5.5 5.3 5.3 5.2 5.0 4.9 4.8 4.9 4.8 4.4 4.1 4.0 3.8 3.7 3.8 3.8 3.7 3.7 3.6 3.8 3.9 4.0 4.2 4.1 4.4 4.9
7.8 7.7 7.8 7.8 7.8 7.9 7.8 7.6 7.6 7.5 7.5 7.3 7.0 6.6 6.3 6.0 5.9 5.8 5.5 5.3 5.2 5.1 5.0 4.9 4.8 4.9 4.7 4.4 4.1 4.0 3.8 3.8 3.7 3.5 3.5 3.5 3.5 3.6 3.7 3.9 4.3 4.1 4.4 4.7
7.7 7.8 7.7 7.7 7.8 7.8 7.7 7.6 7.4 7.3 7.3 7.2 6.9 6.4 6.2 6.0 5.8 5.7 5.4 5.3 5.2 5.1 5.0 4.8 4.7 4.7 4.5 4.4 4.0 3.9 3.8 3.7 3.7 3.5 3.2 3.3 3.4 3.6 3.8 4.0 4.1 4.0 4.2 4.5
Wind_Speed
14 17 6 11 18 11 15 20 11 18 9 18 9 8 7 7 7 9 10 9 8 7 8 9 7 7 6 6 6 5 6 8 9 9 9 8 8 8 9 9 9 10 10 11
5 14 5 7 19 20 17 17 19 24 26 25 24 4 7 11 7 10 10 8 8 8 10 10 8 8 8 7 7 6 7 10 9 8 9 9 9 9 9 10 10 10 11 11
7 1 6 10 12 6 4 4 6 9 14 1 3 3 6 7 8 11 8 7 9 9 9 9 9 8 8 7 7 7 8 9 9 9 9 9 10 10 10 10 10 11 11 11
4 2 5 7 4 6 8 6 15 7 8 6 5 5 8 9 9 9 7 7 8 7 7 7 5 6 9 6 7 8 9 10 9 9 9 10 10 11 11 9 10 11 11 12
3 3 9 7 1 5 7 7 10 14 11 5 3 1 6 5 4 5 6 8 8 9 11 7 9 10 8 8 7 8 10 10 9 8 9 10 11 12 11 10 10 11 11 12
1 4 6 6 3 3 3 5 2 5 2 2 2 7 6 4 4 13 10 9 10 10 7 7 11 6 8 11 8 10 10 10 10 10 10 11 12 12 11 10 12 11 13 12
8 6 10 8 3 3 3 5 3 5 4 3 4 5 7 6 11 9 8 11 10 9 10 13 10 6 11 11 12 11 10 10 11 10 11 12 12 11 11 11 11 12 13 13
3 5 10 7 4 4 2 3 3 4 2 3 7 11 10 11 11 12 14 12 10 9 10 11 7 5 11 14 12 10 9 11 11 11 10 10 12 12 12 11 12 12 13 12
11 8 2 6 4 4 5 4 3 2 2 8 12 11 10 8 11 13 13 13 11 7 10 12 7 7 10 16 9 10 10 11 11 12 12 12 11 12 10 11 9 10 10 10
0 4 14 7 1 4 3 2 1 5 13 11 11 10 11 11 12 10 11 11 9 8 11 13 12 6 11 14 12 11 11 11 10 10 12 11 9 9 10 9 9 10 10 10
7 11 7 3 3 5 1 5 11 10 10 9 6 12 9 9 13 14 14 13 8 10 12 15 13 13 8 11 11 11 10 10 10 9 11 11 11 10 10 12 12 10 10 10
17 14 3 5 6 5 8 9 8 4 7 7 5 12 12 12 13 13 15 15 14 14 12 14 13 14 12 9 10 10 9 8 8 8 9 9 10 11 21 24 27 27 28 21
9 3 3 3 8 9 7 8 7 5 7 9 12 9 8 10 14 20 17 15 15 17 15 12 15 13 12 11 9 10 9 10 8 11 9 10 10 10 12 16 22 26 26 27
5 3 1 4 5 5 6 8 7 6 8 9 11 11 10 11 16 15 15 15 15 14 12 13 12 12 13 10 8 9 9 19 10 9 9 10 10 11 9 10 12 11 17 19
5 3 3 5 6 7 3 2 6 8 9 12 10 7 7 12 17 19 17 15 15 13 13 11 11 12 11 7 7 9 8 7 9 9 9 12 10 11 10 11 11 11 11 16
6 6 8 6 10 10 5 5 4 8 9 12 13 15 15 14 17 16 16 12 14 16 14 12 10 13 9 8 9 7 8 17 15 9 8 10 9 9 9 10 11 12 11 11
1 7 6 6 7 8 7 4 7 9 12 12 16 16 16 17 17 16 15 12 13 16 13 12 12 11 9 8 8 7 7 8 15 9 8 9 9 10 10 10 11 10 11 13
6 7 6 7 10 8 13 10 11 11 12 14 15 15 15 15 16 17 15 16 16 13 12 10 9 10 9 8 7 7 7 5 8 8 9 9 9 9 10 11 11 11 12 13
4 9 8 7 5 6 7 9 11 12 11 11 13 15 14 14 14 14 15 15 15 14 8 8 14 12 8 11 12 5 5 7 7 8 8 14 10 10 10 10 11 11 12 12
9 4 5 6 5 3 10 9 8 11 10 10 13 13 14 13 13 14 14 14 11 7 9 9 8 6 10 10 13 4 5 6 8 8 8 9 9 10 10 16 14 12 12 12
7 5 6 7 10 7 5 6 11 12 12 10 12 13 14 14 14 14 14 10 9 9 9 10 5 7 7 8 5 4 5 6 8 8 8 9 10 10 11 11 11 11 12 11
3 5 6 7 9 9 6 7 8 10 12 12 12 12 13 14 14 14 13 8 6 16 7 2 5 12 9 12 4 5 6 7 7 7 8 9 9 10 11 11 11 12 12 11
4 5 6 6 8 10 10 8 7 9 11 12 13 13 12 11 11 11 10 6 5 9 2 4 12 17 15 6 5 5 7 7 7 8 9 9 10 10 10 11 12 13 11 11
3 4 5 6 7 8 10 10 8 10 11 12 12 13 12 10 10 9 6 10 13 10 6 7 11 16 13 5 5 5 6 7 7 8 9 17 10 10 11 12 12 12 11 14
5 5 5 6 7 7 9 10 10 9 10 12 13 12 13 9 9 10 5 5 10 7 3 10 14 14 4 5 5 6 6 6 7 8 9 9 10 10 11 12 13 12 12 12
5 5 5 6 6 7 7 8 8 8 9 10 10 10 10 9 10 10 6 7 2 6 3 4 5 5 4 5 6 6 6 7 8 8 11 10 10 11 11 13 12 13 12 12
4 10 5 5 5 6 7 9 9 10 11 9 11 10 10 10 10 12 10 3 3 3 3 3 4 6 5 5 5 6 6 6 10 9 9 9 10 10 11 12 11 12 12 12
Wind_Direction
253 272 260 266 260 219 211 240 242 267 246 262 255 263 245 253 283 294 314 312 296 282 287 295 290 292 290 282 291 287 283 286 280 282 282 279 279 277 278 277 273 271 272 273
249 260 253 252 259 249 232 242 256 263 274 270 273 262 279 270 276 283 277 275 279 286 294 295 283 280 287 288 283 275 267 276 281 279 280 281 281 278 274 276 275 269 266 265
270 359 305 276 256 201 173 235 172 200 235 210 284 267 260 278 268 272 276 282 286 284 282 285 279 280 277 273 278 271 272 278 279 277 277 278 280 281 277 275 275 273 270 268
278 319 249 244 192 165 187 222 217 285 256 211 218 250 266 243 250 272 268 272 279 273 277 276 263 271 270 261 257 270 279 281 277 273 273 280 280 279 279 275 271 272 270 267
262 228 312 287 301 151 161 277 208 224 260 267 271 304 283 257 211 235 265 272 265 273 275 273 282 279 269 277 272 272 278 281 278 270 271 276 277 277 277 277 274 272 270 268
79 250 257 224 129 146 136 292 329 154 246 279 24 301 289 280 268 310 294 283 280 285 279 280 286 283 281 282 275 272 276 278 280 280 276 275 275 277 278 273 273 274 273 265
225 261 282 262 164 155 100 250 189 189 213 231 244 239 270 287 293 272 257 284 287 274 272 278 282 279 281 278 268 272 275 280 281 278 275 273 275 273 273 272 270 270 267 267
174 229 275 157 105 190 220 263 210 227 233 265 268 271 266 269 282 291 287 283 267 258 266 277 243 244 277 276 276 275 274 277 280 278 275 278 276 278 275 272 268 267 266 265
196 216 258 205 251 209 178 206 272 54 325 261 261 260 278 274 283 284 276 282 281 252 275 288 274 221 262 278 280 273 273 274 276 278 278 278 277 277 276 268 262 266 270 270
205 223 247 276 172 145 156 169 359 262 249 253 258 275 278 283 280 280 289 286 285 272 278 283 294 245 234 275 278 273 272 275 277 274 280 277 278 276 274 270 266 263 266 264
259 274 300 65 117 132 148 239 239 244 241 253 248 273 267 285 297 301 298 297 287 269 278 281 293 287 267 257 270 273 273 274 274 274 277 280 273 270 270 267 260 266 262 260
266 290 252 250 181 195 219 242 257 274 304 288 227 278 293 295 292 294 297 299 293 290 281 280 287 285 286 268 267 269 274 275 272 280 283 278 276 280 275 279 284 281 282 279
279 210 232 225 204 219 229 257 266 247 251 268 289 275 273 270 284 294 300 295 285 288 292 283 288 290 285 282 266 264 266 273 278 283 279 280 283 283 288 293 282 285 283 283
287 110 360 219 232 234 230 261 281 263 255 262 263 275 274 282 292 295 294 291 291 294 285 284 287 283 284 277 259 256 262 275 283 283 280 281 279 278 280 290 295 293 285 282
271 249 241 294 293 270 253 297 301 286 291 296 288 258 280 289 298 302 307 305 299 297 288 282 279 281 289 275 259 266 266 275 279 277 276 285 296 293 287 287 285 285 288 285
313 296 294 262 272 279 277 301 243 288 297 301 302 307 306 299 300 302 307 313 313 307 296 289 288 292 292 279 271 272 273 286 299 296 294 298 295 289 289 288 286 288 288 283
335 303 295 302 273 277 273 262 244 279 296 297 300 306 309 310 308 306 308 310 307 304 299 291 292 295 284 273 272 277 280 285 292 306 294 296 294 293 292 288 285 286 289 287
235 267 250 241 280 296 300 303 296 297 298 298 304 309 309 310 304 305 310 310 305 302 295 293 288 281 273 273 272 278 277 290 302 298 298 297 295 291 293 293 290 292 293 294
214 266 292 288 263 259 273 287 300 300 305 306 308 307 304 303 301 303 304 306 304 309 312 309 300 308 299 297 314 301 318 307 303 299 298 303 303 295 298 295 297 298 297 298
305 286 285 303 302 246 301 302 290 303 307 306 305 307 306 306 305 304 304 299 295 294 301 293 304 310 298 307 316 330 305 302 300 299 303 307 305 301 303 307 304 302 300 297
288 297 304 300 305 306 281 298 311 309 311 310 305 306 307 308 308 306 305 307 314 313 311 329 327 307 301 307 351 315 317 309 306 304 305 303 305 308 306 304 305 302 301 298
307 317 310 308 309 311 304 300 298 304 310 308 307 308 311 310 313 309 300 296 308 309 307 337 310 303 328 18 347 330 316 310 307 309 306 309 310 308 309 310 308 308 301 304
312 304 305 309 316 312 312 305 300 304 308 308 310 311 311 306 306 307 309 320 320 313 356 325 318 330 356 8 334 316 311 308 313 309 307 308 311 312 311 313 314 308 306 310
303 317 309 315 307 312 314 317 314 309 301 302 310 311 308 314 308 304 296 306 317 323 338 324 327 337 6 336 318 311 310 314 314 306 312 323 316 314 316 315 315 312 316 316
335 308 303 320 321 312 312 314 314 309 311 315 314 314 311 304 299 303 306 310 318 327 320 328 338 343 345 324 311 316 311 314 310 323 316 320 318 319 318 320 317 322 326 323
333 317 305 294 292 305 310 315 308 317 319 315 315 315 307 308 315 315 295 303 310 326 313 315 318 334 326 319 328 316 313 316 323 315 325 319 318 320 319 323 317 330 326 328
322 341 312 323 316 314 309 314 321 315 313 317 307 307 315 315 314 316 313 308 302 300 300 313 319 330 328 330 322 316 311 311 323 323 323 320 321 320 322 323 322 333 333 336